Oxford, MS

5:42 AM CDT on August 20, 2017 (GMT -0500)
University-Oxford

Weather History for KUOX - November, 2011

Change the Weather History Date:

Sunday, November 6, 2011

  Actual Average Record
Temperature  
Mean Temperature 55 °F -  
Max Temperature 66 °F 61 °F 80 °F (1978)
Min Temperature 44 °F 37 °F 22 °F (1967)
Degree Days  
Heating Degree Days 10    
Growing Degree Days 5 (Base 50)    
Moisture  
Dew Point 41 °F    
Average Humidity 61    
Maximum Humidity 77    
Minimum Humidity 49    
Precipitation  
Precipitation 0.00 in - - ()
Sea Level Pressure  
Sea Level Pressure 30.24 in    
Wind  
Wind Speed 1 mph (SE)    
Max Wind Speed 9 mph    
Max Gust Speed 16 mph    
Visibility 10 miles    
Events      
Averages and records for this station are not official NWS values.
T = Trace of Precipitation, MM = Missing Value Source: NWS Daily Summary

Daily Weather History Graph

Daily Weather History Graph

Search for Another Location

Airport or City:

Trip Planner

Search our weather history database for the weather conditions in past years. The results will help you decide how hot, cold, wet, or windy it might be!

Date:

Astronomy

Nov. 06, 2011 Rise Set
Actual Time 6:22 AM CST 5:00 PM CST
Civil Twilight 5:56 AM CST 5:26 PM CST
Nautical Twilight 5:26 AM CST 5:56 PM CST
Astronomical Twilight 4:57 AM CST 6:26 PM CST
Moon 2:37 PM CST (11/6) 2:37 AM CST (11/6)
Length of Visible Light 11h 30m
Length of Day
10h 37m
Waxing Gibbous, 86% of the Moon is Illuminated
Nov 6
Waxing Gibbous
Nov 10
Full
Nov 18
Last Quarter
Nov 25
New
Dec 2
First Quarter

Hourly Weather History & Observations

Time (CST) Temp. Windchill Dew Point Humidity Pressure Visibility Wind Dir Wind Speed Gust Speed Precip Events Conditions
12:15 AM 53.6 °F - 42.8 °F 67% 30.16 in 10.0 mi Calm Calm - N/A   Clear
12:35 AM 53.6 °F - 41.0 °F 62% 30.17 in 10.0 mi Calm Calm - N/A   Clear
12:55 AM 53.6 °F - 41.0 °F 62% 30.17 in 10.0 mi Calm Calm - N/A   Clear
1:15 AM 51.8 °F - 41.0 °F 67% 30.18 in 10.0 mi Calm Calm - N/A   Clear
1:35 AM 50.0 °F - 41.0 °F 71% 30.18 in 10.0 mi Calm Calm - N/A   Clear
1:55 AM 50.0 °F - 41.0 °F 71% 30.18 in 10.0 mi Calm Calm - N/A   Clear
1:15 AM 50.0 °F - 39.2 °F 66% 30.19 in 10.0 mi Calm Calm - N/A   Clear
1:35 AM 50.0 °F - 39.2 °F 66% 30.20 in 10.0 mi SSE 4.6 mph - N/A   Clear
1:55 AM 50.0 °F - 37.4 °F 62% 30.21 in 10.0 mi SE 3.5 mph - N/A   Clear
2:15 AM 50.0 °F - 37.4 °F 62% 30.22 in 10.0 mi Calm Calm - N/A   Clear
2:35 AM 48.2 °F - 35.6 °F 62% 30.22 in 10.0 mi Calm Calm - N/A   Clear
2:55 AM 48.2 °F - 35.6 °F 62% 30.23 in 10.0 mi Calm Calm - N/A   Clear
3:15 AM 48.2 °F - 35.6 °F 62% 30.23 in 10.0 mi Calm Calm - N/A   Clear
3:35 AM 48.2 °F - 35.6 °F 62% 30.24 in 10.0 mi Calm Calm - N/A   Clear
3:55 AM 46.4 °F - 35.6 °F 66% 30.24 in 10.0 mi Calm Calm - N/A   Clear
4:15 AM 46.4 °F - 33.8 °F 62% 30.26 in 10.0 mi Calm Calm - N/A   Clear
4:35 AM 46.4 °F 44.3 °F 33.8 °F 62% 30.25 in 10.0 mi SSE 4.6 mph - N/A   Clear
4:55 AM 46.4 °F - 33.8 °F 62% 30.26 in 10.0 mi Calm Calm - N/A   Clear
5:15 AM 46.4 °F - 33.8 °F 62% 30.27 in 10.0 mi Calm Calm - N/A   Clear
5:55 AM 44.6 °F 42.2 °F 33.8 °F 66% 30.27 in 10.0 mi SSE 4.6 mph - N/A   Clear
6:15 AM 44.6 °F - 33.8 °F 66% 30.27 in 10.0 mi Calm Calm - N/A   Clear
6:35 AM 44.6 °F - 33.8 °F 66% 30.27 in 10.0 mi Calm Calm - N/A   Clear
6:55 AM 44.6 °F - 33.8 °F 66% 30.27 in 10.0 mi Calm Calm - N/A   Clear
7:15 AM 44.6 °F 43.1 °F 33.8 °F 66% 30.28 in 10.0 mi SSE 3.5 mph - N/A   Clear
7:35 AM 46.4 °F 45.2 °F 35.6 °F 66% 30.29 in 10.0 mi SSE 3.5 mph - N/A   Clear
7:55 AM 48.2 °F - 35.6 °F 62% 30.30 in 10.0 mi SE 4.6 mph - N/A   Clear
8:15 AM 48.2 °F - 35.6 °F 62% 30.30 in 10.0 mi SSE 4.6 mph - N/A   Clear
8:35 AM 50.0 °F - 37.4 °F 62% 30.29 in 10.0 mi SSE 9.2 mph 16.1 mph N/A   Clear
8:55 AM 50.0 °F - 37.4 °F 62% 30.29 in 10.0 mi SE 6.9 mph - N/A   Clear
9:15 AM 53.6 °F - 37.4 °F 54% 30.30 in 10.0 mi SE 5.8 mph - N/A   Clear
9:35 AM 53.6 °F - 39.2 °F 58% 30.29 in 10.0 mi SSE 4.6 mph 16.1 mph N/A   Clear
9:55 AM 55.4 °F - 39.2 °F 54% 30.29 in 10.0 mi SSE 4.6 mph - N/A   Clear
10:15 AM 55.4 °F - 39.2 °F 54% 30.28 in 10.0 mi SSE 3.5 mph - N/A   Clear
10:35 AM 57.2 °F - 41.0 °F 55% 30.29 in 10.0 mi SE 4.6 mph - N/A   Clear
10:55 AM 59.0 °F - 41.0 °F 51% 30.28 in 10.0 mi SE 4.6 mph - N/A   Clear
11:15 AM 59.0 °F - 41.0 °F 51% 30.28 in 10.0 mi SSE 4.6 mph - N/A   Clear
11:35 AM 60.8 °F - 44.6 °F 55% 30.27 in 10.0 mi SSE 3.5 mph - N/A   Clear
11:55 AM 60.8 °F - 44.6 °F 55% 30.26 in 10.0 mi SSE 5.8 mph - N/A   Partly Cloudy
12:15 PM 62.6 °F - 44.6 °F 52% 30.25 in 10.0 mi Calm Calm - N/A   Clear
12:35 PM 64.4 °F - 44.6 °F 49% 30.24 in 10.0 mi SSE 3.5 mph - N/A   Clear
12:55 PM 64.4 °F - 44.6 °F 49% 30.23 in 10.0 mi Calm Calm - N/A   Clear
1:15 PM 64.4 °F - 46.4 °F 52% 30.22 in 10.0 mi Calm Calm - N/A   Clear
1:35 PM 64.4 °F - 46.4 °F 52% 30.21 in 10.0 mi Calm Calm - N/A   Clear
1:55 PM 66.2 °F - 46.4 °F 49% 30.21 in 10.0 mi SSE 4.6 mph - N/A   Clear
2:15 PM 66.2 °F - 46.4 °F 49% 30.20 in 10.0 mi ESE 3.5 mph - N/A   Clear
2:35 PM 66.2 °F - 46.4 °F 49% 30.20 in 10.0 mi SE 3.5 mph - N/A   Clear
2:55 PM 66.2 °F - 46.4 °F 49% 30.20 in 10.0 mi ESE 4.6 mph - N/A   Clear
3:15 PM 66.2 °F - 48.2 °F 52% 30.20 in 10.0 mi Calm Calm - N/A   Clear
3:35 PM 66.2 °F - 48.2 °F 52% 30.20 in 10.0 mi SSE 4.6 mph - N/A   Clear
3:55 PM 66.2 °F - 48.2 °F 52% 30.20 in 10.0 mi Calm Calm - N/A   Clear
4:15 PM 64.4 °F - 48.2 °F 56% 30.20 in 10.0 mi Calm Calm - N/A   Clear
4:35 PM 64.4 °F - 48.2 °F 56% 30.20 in 10.0 mi Calm Calm - N/A   Clear
5:15 PM 60.8 °F - 48.2 °F 63% 30.21 in 10.0 mi Calm Calm - N/A   Clear
5:35 PM 60.8 °F - 48.2 °F 63% 30.21 in 10.0 mi Calm Calm - N/A   Clear
5:55 PM 59.0 °F - 48.2 °F 67% 30.22 in 10.0 mi Calm Calm - N/A   Clear
6:15 PM 59.0 °F - 48.2 °F 67% 30.22 in 10.0 mi Calm Calm - N/A   Clear
6:35 PM 59.0 °F - 48.2 °F 67% 30.23 in 10.0 mi Calm Calm - N/A   Clear
7:15 PM 59.0 °F - 48.2 °F 67% 30.24 in 10.0 mi Calm Calm - N/A   Clear
7:35 PM 57.2 °F - 48.2 °F 72% 30.25 in 10.0 mi Calm Calm - N/A   Clear
7:55 PM 57.2 °F - 48.2 °F 72% 30.25 in 10.0 mi Calm Calm - N/A   Clear
8:15 PM 55.4 °F - 48.2 °F 77% 30.25 in 10.0 mi Calm Calm - N/A   Clear
8:35 PM 55.4 °F - 48.2 °F 77% 30.26 in 10.0 mi Calm Calm - N/A   Clear
8:55 PM 55.4 °F - 48.2 °F 77% 30.26 in 10.0 mi Calm Calm - N/A   Clear
9:15 PM 55.4 °F - 48.2 °F 77% 30.26 in 10.0 mi Calm Calm - N/A   Clear
9:35 PM 55.4 °F - 48.2 °F 77% 30.27 in 10.0 mi Calm Calm - N/A   Clear
9:55 PM 55.4 °F - 48.2 °F 77% 30.26 in 10.0 mi Calm Calm - N/A   Clear
10:15 PM 55.4 °F - 48.2 °F 77% 30.26 in 10.0 mi Calm Calm - N/A   Clear
10:35 PM 55.4 °F - 48.2 °F 77% 30.26 in 10.0 mi Calm Calm - N/A   Clear
10:55 PM 53.6 °F - 48.2 °F 82% 30.26 in 10.0 mi Calm Calm - N/A   Clear